Charlottesville, VA

7:22 AM EDT on May 25, 2017 (GMT -0400)
Charlottesville-Albemarle

Weather History for KCHO - July, 2014

Change the Weather History Date:

Tuesday, July 15, 2014

  Actual Average Record
Temperature  
Mean Temperature 78 °F 76 °F  
Max Temperature 86 °F 86 °F 102 °F (1954)
Min Temperature 70 °F 65 °F 54 °F (2001)
Degree Days  
Heating Degree Days 0 0  
Month to date heating degree days 0 0  
Since 1 June heating degree days 2 11  
Since 1 July heating degree days 0 0  
Cooling Degree Days 13 11  
Month to date cooling degree days 181 160  
Year to date cooling degree days 569 465  
Since 1 June cooling degree days 453 379  
Growing Degree Days 27 (Base 50)    
Moisture  
Dew Point 69 °F    
Average Humidity 78    
Maximum Humidity 100    
Minimum Humidity 55    
Precipitation  
Precipitation 0.04 in 0.16 in 0.13 in (2012)
Month to date precipitation 2.13 2.01  
Year to date precipitation 23.25 22.21  
Sea Level Pressure  
Sea Level Pressure 29.79 in    
Wind  
Wind Speed 3 mph (SW)    
Max Wind Speed 12 mph    
Max Gust Speed 15 mph    
Visibility 7 miles    
Events Fog    
T = Trace of Precipitation, MM = Missing Value Source: NWS Daily Summary

Daily Weather History Graph

Daily Weather History Graph

Search for Another Location

Airport or City:

Trip Planner

Search our weather history database for the weather conditions in past years. The results will help you decide how hot, cold, wet, or windy it might be!

Date:

Astronomy

Jul. 15, 2014 Rise Set
Actual Time 6:02 AM EDT 8:36 PM EDT
Civil Twilight 5:32 AM EDT 9:06 PM EDT
Nautical Twilight 4:54 AM EDT 9:44 PM EDT
Astronomical Twilight 4:11 AM EDT 10:27 PM EDT
Moon 10:47 PM EDT (7/15) 9:50 AM EDT (7/15)
Length of Visible Light 15h 34m
Length of Day
14h 33m
Waning Gibbous, 85% of the Moon is Illuminated
Jul 15
Waning Gibbous
Jul 18
Last Quarter
Jul 26
New
Aug 3
First Quarter
Aug 10
Full

Hourly Weather History & Observations

Time (EDT) Temp. Heat Index Dew Point Humidity Pressure Visibility Wind Dir Wind Speed Gust Speed Precip Events Conditions
12:53 AM 73.0 °F - 71.1 °F 93% 29.84 in 6.0 mi Calm Calm - 0.01 in   Overcast
1:53 AM 73.0 °F - 71.1 °F 93% 29.81 in 5.0 mi NNW 3.5 mph - 0.04 in   Overcast
2:53 AM 71.1 °F - 70.0 °F 96% 29.81 in 2.5 mi SSW 4.6 mph - N/A   Clear
3:03 AM 71.1 °F - 70.0 °F 96% 29.83 in 1.2 mi SW 3.5 mph - N/A   Clear
3:11 AM 71.1 °F - 70.0 °F 96% 29.83 in 1.0 mi South 4.6 mph - N/A   Mist
3:18 AM 71.1 °F - 71.1 °F 100% 29.82 in 0.2 mi South 4.6 mph - N/A Fog Fog
3:53 AM 71.1 °F - 70.0 °F 96% 29.80 in 0.8 mi Calm Calm - N/A   Mist
4:11 AM 71.1 °F - 70.0 °F 96% 29.82 in 2.0 mi Calm Calm - N/A   Mostly Cloudy
4:21 AM 71.1 °F - 70.0 °F 96% 29.81 in 5.0 mi Calm Calm - N/A   Scattered Clouds
4:53 AM 71.1 °F - 70.0 °F 96% 29.78 in 6.0 mi Calm Calm - N/A   Partly Cloudy
5:53 AM 70.0 °F - 69.1 °F 97% 29.78 in 3.0 mi South 5.8 mph - N/A   Clear
6:53 AM 71.1 °F - 70.0 °F 96% 29.78 in 10.0 mi Calm Calm - N/A   Partly Cloudy
7:53 AM 73.0 °F - 71.1 °F 93% 29.78 in 10.0 mi SW 3.5 mph - N/A   Partly Cloudy
8:53 AM 75.9 °F - 72.0 °F 87% 29.79 in 10.0 mi SSW 3.5 mph - N/A   Clear
9:53 AM 81.0 °F 84.9 °F 71.1 °F 72% 29.79 in 10.0 mi SW 3.5 mph - N/A   Scattered Clouds
10:53 AM 84.0 °F 89.0 °F 71.1 °F 65% 29.78 in 10.0 mi Variable 4.6 mph - N/A   Scattered Clouds
11:53 AM 84.9 °F 88.8 °F 69.1 °F 59% 29.78 in 10.0 mi West 4.6 mph - N/A   Scattered Clouds
12:53 PM 81.0 °F 84.1 °F 69.1 °F 67% 29.79 in 10.0 mi Variable 4.6 mph - N/A   Overcast
1:53 PM 81.0 °F 84.1 °F 69.1 °F 67% 29.78 in 10.0 mi West 3.5 mph - N/A   Overcast
2:53 PM 84.0 °F 87.8 °F 69.1 °F 61% 29.75 in 10.0 mi Variable 3.5 mph - N/A   Partly Cloudy
3:53 PM 84.0 °F 86.5 °F 66.9 °F 56% 29.72 in 10.0 mi Variable 3.5 mph - N/A   Clear
4:53 PM 84.9 °F 88.2 °F 68.0 °F 57% 29.73 in 10.0 mi WSW 6.9 mph - N/A   Scattered Clouds
5:53 PM 82.9 °F 84.6 °F 64.9 °F 54% 29.73 in 10.0 mi Variable 3.5 mph - N/A   Partly Cloudy
6:53 PM 81.0 °F 83.0 °F 66.0 °F 60% 29.74 in 10.0 mi Calm Calm - N/A   Clear
7:53 PM 78.1 °F - 66.0 °F 66% 29.76 in 10.0 mi Calm Calm - N/A   Mostly Cloudy
8:53 PM 77.0 °F - 64.9 °F 66% 29.78 in 10.0 mi Calm Calm - N/A   Mostly Cloudy
9:53 PM 75.9 °F - 66.9 °F 74% 29.81 in 10.0 mi ENE 5.8 mph - N/A   Mostly Cloudy
10:53 PM 73.0 °F - 69.1 °F 87% 29.81 in 10.0 mi NNE 8.1 mph - N/A   Overcast